TimeCET,TemperatureF,Dew PointF,Humidity,Sea Level PressureIn,VisibilityMPH,Wind Direction,Wind SpeedMPH,Gust SpeedMPH,PrecipitationIn,Events,Conditions,WindDirDegrees,DateUTC
12:25 AM,35.6,33.8,93,30.12,2.8,SSW,12.7,-,N/A,Rain,Mostly Cloudy,210,2012-12-08 23:25:00
12:55 AM,35.6,33.8,93,30.12,2.5,SSW,13.8,-,N/A,Rain,Mostly Cloudy,200,2012-12-08 23:55:00
1:00 AM,36,34,91,30.13,2,SSW,13.4,,,Rain,Drizzle,200,2012-12-09 00:00:00
1:25 AM,35.6,33.8,93,30.09,-9999.0,SSW,12.7,-,N/A,Rain,Mostly Cloudy,200,2012-12-09 00:25:00
1:55 AM,35.6,33.8,93,30.09,-9999.0,SSW,12.7,-,N/A,Rain,Mostly Cloudy,200,2012-12-09 00:55:00
2:25 AM,35.6,35.6,100,30.09,1.7,SSW,13.8,-,N/A,Rain,Overcast,210,2012-12-09 01:25:00
2:55 AM,37.4,37.4,100,30.06,1.7,SSW,15.0,-,N/A,Rain,Overcast,210,2012-12-09 01:55:00
3:25 AM,37.4,37.4,100,30.06,1.7,SSW,16.1,-,N/A,,Mostly Cloudy,210,2012-12-09 02:25:00
3:55 AM,37.4,37.4,100,30.04,1.4,SSW,13.8,-,N/A,,Mostly Cloudy,210,2012-12-09 02:55:00
4:00 AM,37,37,100,30.05,1,SW,13.4,,,Rain,Light Drizzle,220,2012-12-09 03:00:00
4:25 AM,37.4,37.4,100,30.01,1.4,SW,12.7,-,N/A,Rain,Mostly Cloudy,220,2012-12-09 03:25:00
4:55 AM,37.4,37.4,100,30.01,1.1,SSW,11.5,-,N/A,Rain,Mostly Cloudy,210,2012-12-09 03:55:00
5:25 AM,39.2,39.2,100,29.98,2.8,SW,10.4,-,N/A,Rain,Mostly Cloudy,220,2012-12-09 04:25:00
5:55 AM,42.8,42.8,100,29.98,6.2,SW,10.4,-,N/A,Rain,Light Rain,220,2012-12-09 04:55:00
6:25 AM,44.6,42.8,93,29.95,6.2,WSW,15.0,-,N/A,Rain,Light Rain,250,2012-12-09 05:25:00
6:55 AM,44.6,42.8,93,29.95,6.2,West,15.0,-,N/A,,Light Drizzle,260,2012-12-09 05:55:00
7:00 AM,45,43,90,29.96,6,West,15.7,,,Rain,Drizzle,260,2012-12-09 06:00:00
7:25 AM,44.6,42.8,93,29.95,6.2,West,17.3,-,N/A,Rain,Light Rain,270,2012-12-09 06:25:00
7:55 AM,44.6,42.8,93,29.92,6.2,West,17.3,-,N/A,Rain,Light Rain,270,2012-12-09 06:55:00
8:25 AM,46.4,42.8,87,29.92,6.2,West,20.7,-,N/A,Rain,Light Rain,260,2012-12-09 07:25:00
8:55 AM,46.4,42.8,87,29.89,6.2,West,20.7,-,N/A,Rain,Light Rain,260,2012-12-09 07:55:00
9:25 AM,46.4,42.8,87,29.89,5.6,West,20.7,-,N/A,Rain,Light Rain,260,2012-12-09 08:25:00
9:55 AM,46.4,42.8,87,29.89,6.2,West,20.7,-,N/A,Rain,Light Rain,260,2012-12-09 08:55:00
10:00 AM,46,42,83,29.89,11,West,22.4,,,Rain,Rain,260,2012-12-09 09:00:00
10:25 AM,46.4,42.8,87,29.86,6.2,West,20.7,-,N/A,Rain,Light Rain,270,2012-12-09 09:25:00
10:55 AM,46.4,42.8,87,29.86,3.7,West,23.0,-,N/A,Rain,Light Rain,270,2012-12-09 09:55:00
11:25 AM,46.4,42.8,87,29.86,6.2,West,24.2,-,N/A,Rain,Light Rain,270,2012-12-09 10:25:00
11:55 AM,46.4,42.8,87,29.83,6.2,West,25.3,-,N/A,,Scattered Clouds,270,2012-12-09 10:55:00
12:25 PM,46.4,42.8,87,29.83,6.2,West,23.0,-,N/A,,Mostly Cloudy,270,2012-12-09 11:25:00
12:55 PM,46.4,42.8,87,29.80,6.2,West,24.2,-,N/A,,Scattered Clouds,270,2012-12-09 11:55:00
1:00 PM,47,42,77,29.82,14,West,26.8,,,,Partly Cloudy,270,2012-12-09 12:00:00
1:25 PM,46.4,41.0,81,29.80,6.2,West,24.2,36.8,N/A,,Scattered Clouds,270,2012-12-09 12:25:00
1:55 PM,46.4,41.0,81,29.77,6.2,West,28.8,41.4,N/A,Rain,Light Rain Showers,270,2012-12-09 12:55:00
2:25 PM,46.4,41.0,81,29.77,6.2,West,23.0,-,N/A,Rain,Light Rain Showers,280,2012-12-09 13:25:00
2:55 PM,48.2,41.0,76,29.77,6.2,WNW,21.9,33.4,N/A,,Partly Cloudy,290,2012-12-09 13:55:00
3:25 PM,46.4,39.2,76,29.77,6.2,WNW,20.7,32.2,N/A,,Partly Cloudy,290,2012-12-09 14:25:00
3:55 PM,44.6,39.2,81,29.77,6.2,WNW,18.4,-,N/A,,Partly Cloudy,290,2012-12-09 14:55:00
4:00 PM,45,38,69,29.77,14,WNW,20.1,,,,Partly Cloudy,290,2012-12-09 15:00:00
4:25 PM,44.6,37.4,76,29.74,6.2,WNW,18.4,-,N/A,Rain,Light Rain Showers,290,2012-12-09 15:25:00
4:55 PM,44.6,35.6,71,29.74,6.2,WNW,24.2,35.7,N/A,,Partly Cloudy,290,2012-12-09 15:55:00
5:25 PM,44.6,37.4,76,29.74,6.2,WNW,23.0,-,N/A,,Scattered Clouds,290,2012-12-09 16:25:00
5:55 PM,44.6,37.4,76,29.71,6.2,West,21.9,-,N/A,,Scattered Clouds,280,2012-12-09 16:55:00
6:25 PM,44.6,37.4,76,29.71,6.2,West,21.9,33.4,N/A,Rain,Light Rain Showers,280,2012-12-09 17:25:00
6:55 PM,42.8,35.6,76,29.71,6.2,West,23.0,34.5,N/A,,Partly Cloudy,280,2012-12-09 17:55:00
7:00 PM,43,37,72,29.72,13,West,24.6,,,,Unknown Precipitation,280,2012-12-09 18:00:00
7:25 PM,39.2,37.4,93,29.71,4.3,NW,28.8,41.4,N/A,Rain,Light Rain Showers,320,2012-12-09 18:25:00
7:55 PM,41.0,37.4,87,29.71,6.2,WNW,19.6,-,N/A,,Partly Cloudy,290,2012-12-09 18:55:00
8:25 PM,42.8,35.6,76,29.68,6.2,WNW,20.7,-,N/A,,Scattered Clouds,300,2012-12-09 19:25:00
8:55 PM,42.8,35.6,76,29.68,6.2,WNW,21.9,-,N/A,,Scattered Clouds,300,2012-12-09 19:55:00
9:25 PM,42.8,33.8,70,29.68,6.2,WNW,23.0,36.8,N/A,,Partly Cloudy,290,2012-12-09 20:25:00
9:55 PM,44.6,35.6,71,29.68,6.2,WNW,24.2,35.7,N/A,Rain,Light Rain Showers,290,2012-12-09 20:55:00
10:00 PM,44,36,66,29.69,7,WNW,24.6,,,Rain,Light Drizzle,300,2012-12-09 21:00:00
10:25 PM,42.8,37.4,81,29.68,6.2,WNW,28.8,41.4,N/A,Rain,Light Rain Showers,290,2012-12-09 21:25:00
10:55 PM,44.6,37.4,76,29.68,6.2,WNW,23.0,-,N/A,,Scattered Clouds,300,2012-12-09 21:55:00
11:25 PM,44.6,39.2,81,29.68,5.6,WNW,27.6,40.3,N/A,Rain,Light Rain Showers,300,2012-12-09 22:25:00
11:55 PM,42.8,37.4,81,29.68,6.2,NW,23.0,34.5,N/A,,Scattered Clouds,310,2012-12-09 22:55:00